Stations météo

réclame
Mon MeteoGroup
Eindhoven, Pays-Bas (6370): Température de l'air & dewpoint: 15.01.2019 17:00:00 - 21.01.2019 17:00:00 (CET)Eindhoven, Pays-Bas (6370): Température de l'air 5cm: 15.01.2019 17:00:00 - 21.01.2019 17:00:00 (CET)Eindhoven, Pays-Bas (6370): Vitesse du vent & gusts: 15.01.2019 17:00:00 - 21.01.2019 17:00:00 (CET)Eindhoven, Pays-Bas (6370): Direction du vent: 15.01.2019 17:00:00 - 21.01.2019 17:00:00 (CET)Eindhoven, Pays-Bas (6370): reduced air pressure: 15.01.2019 17:00:00 - 21.01.2019 17:00:00 (CET)Eindhoven, Pays-Bas (6370): visibility: 15.01.2019 17:00:00 - 21.01.2019 17:00:00 (CET)Eindhoven, Pays-Bas (6370): Quantités de précipitations: 15.01.2019 17:00:00 - 21.01.2019 17:00:00 (CET)
Date & Time tt [°C] td [°C] tt 5cm [°C] ff [km/h] ff [knt] fx [km/h] fx [knt] dd ppp [hPa] vv [km] rr [mm]
21.01.2019 17:00:00 0,3 -4,7 -1,8 8 4 11 6 SSW 1020,9 10 0,0
21.01.2019 16:00:00 2,7 -4,6 2,0 9 5 14 8 WSW 1021,2 10 0,0
21.01.2019 15:00:00 3,2 -4,2 3,8 9 5 14 8 SSW 1021,6 10 0,0
21.01.2019 14:00:00 2,7 -4,2 3,8 9 5 14 8 SSW 1022,4 10 0,0
21.01.2019 13:00:00 1,8 -4,1 3,4 8 4 11 6 SSW 1023,1 10 0,0
21.01.2019 12:00:00 0,5 -3,7 1,5 4 2 7 4 - 1023,7 10 0,0
21.01.2019 11:00:00 -1,7 -3,8 -1,2 4 2 7 4 - 1023,9 10 0,0
21.01.2019 10:00:00 -5,4 -6,5 -5,8 2 1 4 2 - 1023,8 10 0,0
21.01.2019 09:00:00 -9,1 -10,4 -11,5 4 2 4 2 - 1024,0 10 0,0
21.01.2019 08:00:00 -9,0 -10,1 -11,9 2 1 4 2 NW 1023,7 10 0,0
21.01.2019 07:00:00 -8,2 -9,2 -11,5 2 1 4 2 S 1023,1 9 0,0
21.01.2019 06:00:00 -8,5 -9,7 -11,5 4 2 4 2 SSW 1023,2 8 0,0
21.01.2019 05:00:00 -8,2 -9,3 -11,5 4 2 4 2 SW 1023,3 5 0,0
21.01.2019 04:00:00 -7,4 -8,2 -11,2 2 1 4 2 SSW 1023,4 6 0,0
21.01.2019 03:00:00 -7,6 -8,3 -11,0 2 1 4 2 NNW 1023,6 9 0,0
21.01.2019 02:00:00 -7,4 -8,3 -10,6 2 1 7 4 NNW 1023,2 8 0,0
21.01.2019 01:00:00 -6,7 -7,9 -10,4 2 1 4 2 NNW 1023,0 7 0,0
21.01.2019 00:00:00 -5,8 -6,5 -9,5 2 1 4 2 N 1022,7 9 0,0
20.01.2019 23:00:00 -4,5 -6,0 -9,2 2 1 7 4 N 1022,3 10 0,0
20.01.2019 22:00:00 -4,3 -5,8 -7,1 4 2 4 2 NNW 1022,3 10 0,0
20.01.2019 21:00:00 -3,1 -5,3 -5,5 5 3 11 6 N 1021,5 10 0,0
20.01.2019 20:00:00 -3,0 -5,8 -6,4 8 4 11 6 NNE 1021,1 10 0,0
20.01.2019 19:00:00 -2,3 -5,9 -6,2 5 3 11 6 ENE 1020,2 10 0,0
20.01.2019 18:00:00 -1,1 -6,2 -5,0 5 3 14 8 ENE 1019,8 10 0,0
20.01.2019 17:00:00 0,1 -5,6 -1,1 13 7 18 10 NE 1019,1 10 0,0
20.01.2019 16:00:00 1,9 -5,0 1,3 9 5 18 10 NE 1018,5 10 0,0
20.01.2019 15:00:00 2,3 -5,2 2,9 11 6 18 10 NE 1018,2 10 0,0
20.01.2019 14:00:00 2,2 -5,1 3,1 11 6 14 8 NE 1018,0 10 0,0
20.01.2019 13:00:00 1,6 -5,9 3,4 8 4 14 8 E 1018,0 10 0,0
20.01.2019 12:00:00 0,4 -5,7 1,5 8 4 14 8 ENE 1017,9 10 0,0
20.01.2019 11:00:00 -1,1 -6,5 -0,3 9 5 14 8 E 1017,7 10 0,0
20.01.2019 10:00:00 -2,3 -6,9 -2,7 8 4 14 8 E 1017,0 10 0,0
20.01.2019 09:00:00 -3,2 -7,4 -4,9 8 4 14 8 E 1016,2 10 0,0
20.01.2019 08:00:00 -3,2 -7,3 -5,1 9 5 14 8 E 1015,3 10 0,0
20.01.2019 07:00:00 -3,4 -6,8 -6,2 9 5 14 8 ENE 1014,9 10 0,0
20.01.2019 06:00:00 -3,4 -6,5 -5,7 5 3 11 6 ENE 1014,5 10 0,0
20.01.2019 05:00:00 -2,9 -6,2 -4,7 8 4 14 8 ESE 1014,4 10 0,0
20.01.2019 04:00:00 -2,5 -6,0 -4,0 9 5 18 10 ESE 1014,4 10 0,0
20.01.2019 03:00:00 -2,2 -5,6 -3,7 11 6 18 10 E 1014,5 10 0,0
20.01.2019 02:00:00 -1,9 -5,3 -3,5 9 5 14 8 E 1014,2 10 0,0
20.01.2019 01:00:00 -1,6 -5,1 -3,1 11 6 18 10 E 1014,3 10 0,0
20.01.2019 00:00:00 -1,4 -4,8 -2,6 11 6 18 10 ESE 1014,1 10 0,0
19.01.2019 23:00:00 -0,8 -4,5 -2,1 11 6 25 14 ESE 1013,9 10 0,0
19.01.2019 22:00:00 -0,4 -4,2 -1,9 11 6 18 10 E 1013,8 10 0,0
19.01.2019 21:00:00 -0,3 -4,2 -1,7 9 5 18 10 ESE 1013,7 10 0,0
19.01.2019 20:00:00 0,3 -4,3 -1,1 11 6 22 12 ESE 1013,6 10 0,0
19.01.2019 19:00:00 0,7 -4,2 -0,9 9 5 18 10 E 1013,7 10 0,0
19.01.2019 18:00:00 1,1 -3,5 -0,2 11 6 22 12 E 1013,7 10 0,0
19.01.2019 17:00:00 1,8 -3,0 0,8 9 5 22 12 E 1013,8 10 0,0
19.01.2019 16:00:00 2,8 -2,6 2,7 9 5 25 14 ESE 1013,9 10 0,0
19.01.2019 15:00:00 3,0 -2,5 3,5 15 8 25 14 ESE 1014,5 10 0,0
19.01.2019 14:00:00 2,5 -2,0 3,5 13 7 22 12 ESE 1015,1 10 0,0
19.01.2019 13:00:00 1,7 -2,0 2,7 11 6 22 12 SE 1015,7 10 0,0
19.01.2019 12:00:00 0,2 -2,5 0,3 9 5 22 12 ESE 1016,6 10 0,0
19.01.2019 11:00:00 -0,8 -3,0 -1,1 11 6 18 10 ESE 1016,9 10 0,0
19.01.2019 10:00:00 -1,5 -3,5 -2,0 11 6 18 10 ESE 1017,1 10 0,0
19.01.2019 09:00:00 -2,2 -3,8 -3,4 9 5 14 8 ESE 1017,0 10 0,0
19.01.2019 08:00:00 -2,4 -3,9 -3,9 8 4 14 8 SE 1016,9 10 0,0
19.01.2019 07:00:00 -2,5 -3,8 -4,7 5 3 11 6 SE 1017,1 10 0,0
19.01.2019 06:00:00 -2,3 -3,7 -4,5 8 4 14 8 SE 1017,4 10 0,0
19.01.2019 05:00:00 -2,4 -3,4 -3,5 9 5 14 8 SE 1017,8 10 0,0
19.01.2019 04:00:00 -2,6 -3,1 -5,3 4 2 7 4 SE 1018,1 5 0,0
19.01.2019 03:00:00 -2,4 -2,7 -3,6 8 4 11 6 SE 1018,5 4,5 0,0
19.01.2019 02:00:00 -2,1 -2,3 -2,7 8 4 11 6 SE 1018,9 2,1 0,0
19.01.2019 01:00:00 -1,8 -2,0 -2,3 8 4 11 6 ESE 1019,2 2,2 0,0
19.01.2019 00:00:00 -1,4 -1,6 -1,5 9 5 14 8 SE 1019,4 1,6 0,0
18.01.2019 23:00:00 -1,2 -1,5 -1,2 11 6 14 8 SE 1019,5 2,1 0,0
18.01.2019 22:00:00 -1,1 -1,3 -1,2 8 4 14 8 SE 1019,6 1,9 0,0
18.01.2019 21:00:00 -0,6 -0,8 -0,6 9 5 14 8 SE 1019,7 1,3 0,0
18.01.2019 20:00:00 -0,7 -0,9 -0,8 13 7 18 10 SE 1019,9 0,6 0,0
18.01.2019 19:00:00 -1,2 -1,5 -1,0 9 5 14 8 SSE 1020,1 0,6 0,0
18.01.2019 18:00:00 -0,8 -1,0 -0,8 8 4 11 6 SSE 1020,3 1,3 0,0
18.01.2019 17:00:00 -0,6 -0,8 -0,5 8 4 14 8 SSE 1020,3 1,9 0,0
18.01.2019 16:00:00 -0,7 -0,9 -0,3 9 5 14 8 S 1020,3 1,3 0,0
18.01.2019 15:00:00 -0,7 -0,9 0,0 9 5 14 8 SSE 1020,4 1,7 0,0
18.01.2019 14:00:00 -0,8 -1,1 -0,2 9 5 14 8 S 1020,7 0,4 0,0
18.01.2019 13:00:00 0,0 -0,6 1,2 11 6 18 10 SSE 1020,7 2,8 0,0
18.01.2019 12:00:00 1,9 0,3 2,7 8 4 11 6 S 1020,8 8 0,0
18.01.2019 11:00:00 -0,3 -0,9 0,0 2 1 4 2 - 1020,9 5 0,0
18.01.2019 10:00:00 -2,1 -2,4 -4,7 4 2 7 4 SSW 1020,6 6 0,0
18.01.2019 09:00:00 -4,2 -4,4 -7,6 5 3 7 4 SSW 1020,0 2,3 0,0
18.01.2019 08:00:00 -4,5 -4,8 -7,8 4 2 7 4 S 1019,2 1,6 0,0
18.01.2019 07:00:00 -3,4 -3,7 -7,0 4 2 4 2 - 1018,8 0,6 0,0
18.01.2019 06:00:00 -3,3 -3,6 -6,6 5 3 7 4 SW 1018,2 0,4 0,0
18.01.2019 05:00:00 -3,1 -3,3 -5,5 5 3 7 4 SW 1017,8 2,5 0,0
18.01.2019 04:00:00 -2,4 -2,7 -5,1 5 3 11 6 W 1017,2 10 0,0
18.01.2019 03:00:00 -1,7 -2,3 -3,8 5 3 11 6 W 1016,5 10 0,0
18.01.2019 02:00:00 -2,3 -2,7 -3,8 9 5 11 6 WSW 1015,5 10 0,0
18.01.2019 01:00:00 -0,4 -1,2 -2,4 8 4 22 12 W 1014,9 10 0,0
18.01.2019 00:00:00 0,2 -0,4 -0,7 13 7 18 10 WSW 1014,3 10 0,0
17.01.2019 23:00:00 0,7 -0,2 0,0 9 5 22 12 WNW 1013,6 10 0,0
17.01.2019 22:00:00 1,3 0,3 0,6 15 8 25 14 W 1012,8 10 0,0
17.01.2019 21:00:00 1,5 0,1 0,6 13 7 22 12 WNW 1012,0 10 0,0
17.01.2019 20:00:00 1,1 0,3 0,5 13 7 22 12 W 1010,5 10 0,0
17.01.2019 19:00:00 1,2 0,5 0,5 11 6 22 12 NW 1009,2 10 0,4
17.01.2019 18:00:00 0,8 0,3 0,5 9 5 25 14 WNW 1007,7 5 1,4
17.01.2019 17:00:00 1,2 0,4 0,9 21 11 43 23 W 1006,9 3,2 1,7
17.01.2019 16:00:00 3,4 0,6 3,0 22 12 43 23 W 1006,0 10 0,2
17.01.2019 15:00:00 3,9 1,6 3,8 21 11 32 18 W 1005,0 10 0,0
17.01.2019 14:00:00 4,4 2,0 4,5 18 10 29 16 WNW 1004,2 10 0,0
17.01.2019 13:00:00 4,1 2,8 4,2 16 9 29 16 W 1003,3 10 0,2
17.01.2019 12:00:00 3,1 2,1 3,2 13 7 36 19 WSW 1002,8 10 0,5
17.01.2019 11:00:00 3,4 2,3 3,3 18 10 32 18 W 1002,5 8 2,2
17.01.2019 10:00:00 5,0 4,2 4,8 16 9 29 16 SW 1001,7 4,3 0,2
17.01.2019 09:00:00 4,9 4,1 4,6 18 10 25 14 SSW 1001,6 6 0,0
17.01.2019 08:00:00 4,3 3,6 3,7 15 8 25 14 SSW 1001,7 6 0,0
17.01.2019 07:00:00 3,5 2,9 2,3 15 8 22 12 SW 1001,9 7 0,0
17.01.2019 06:00:00 3,0 2,5 2,1 13 7 22 12 SW 1002,2 6 0,0
17.01.2019 05:00:00 4,8 4,1 4,2 15 8 25 14 WSW 1002,4 9 0,0
17.01.2019 04:00:00 4,8 4,2 4,2 13 7 22 12 SW 1002,4 9 0,0
17.01.2019 03:00:00 4,0 3,6 3,6 11 6 14 8 SW 1002,6 10 0,0
17.01.2019 02:00:00 4,7 4,1 4,4 11 6 18 10 SW 1002,3 10 0,1
17.01.2019 01:00:00 5,4 4,4 5,1 22 12 43 23 W 1002,2 6 0,8
17.01.2019 00:00:00 5,1 4,4 4,9 28 15 47 25 SSW 1001,9 4,0 0,6
16.01.2019 23:00:00 5,6 3,3 5,3 31 17 47 25 SSW 1001,7 10 0,1
16.01.2019 22:00:00 5,8 2,7 5,5 26 14 47 25 SSW 1002,1 10 0,0
16.01.2019 21:00:00 5,8 2,4 5,5 29 16 47 25 SSW 1002,6 10 0,0
16.01.2019 20:00:00 5,9 2,1 5,6 29 16 47 25 SSW 1003,0 10 0,0
16.01.2019 19:00:00 5,8 2,0 5,5 24 13 40 21 SSW 1003,8 10 0,0
16.01.2019 18:00:00 5,7 1,9 5,4 24 13 36 19 SW 1004,6 10 0,0
16.01.2019 17:00:00 5,7 1,9 5,3 22 12 32 18 SW 1005,3 10 0,0
16.01.2019 16:00:00 5,9 1,7 5,5 26 14 36 19 SSW 1005,6 10 0,0
16.01.2019 15:00:00 6,1 2,0 6,0 24 13 43 23 SSW 1006,7 10 0,0
16.01.2019 14:00:00 6,1 2,3 6,1 25 14 40 21 SSW 1007,6 29 0,0
16.01.2019 13:00:00 5,6 2,5 5,5 24 13 43 23 SSW 1008,8 10 0,0
16.01.2019 12:00:00 6,2 2,9 6,3 24 13 40 21 SSW 1009,9 10 0,0
16.01.2019 11:00:00 6,3 2,9 6,1 29 16 40 21 SSW 1010,6 10 0,0
16.01.2019 10:00:00 6,2 2,6 6,0 26 14 40 21 SSW 1010,8 10 0,0
16.01.2019 09:00:00 6,3 2,6 5,9 28 15 43 23 SSW 1011,0 10 0,0
16.01.2019 08:00:00 6,4 3,1 6,0 22 12 32 18 SSW 1011,3 10 0,0
16.01.2019 07:00:00 6,4 3,7 6,0 21 11 32 18 SSW 1011,8 10 0,0
16.01.2019 06:00:00 6,6 3,9 6,2 26 14 36 19 SSW 1012,0 10 0,0
16.01.2019 05:00:00 6,4 4,6 6,1 22 12 32 18 SSW 1012,9 10 0,0
16.01.2019 04:00:00 6,2 5,0 6,0 24 13 40 21 SW 1013,7 10 0,0
16.01.2019 03:00:00 6,5 5,2 6,3 28 15 43 23 SW 1014,3 10 0,0
16.01.2019 02:00:00 6,8 5,2 6,5 26 14 40 21 SW 1014,2 10 0,0
16.01.2019 01:00:00 6,9 5,2 6,7 26 14 40 21 SW 1014,8 10 0,0
16.01.2019 00:00:00 7,1 5,0 6,8 26 14 36 19 SW 1015,3 10 0,0
15.01.2019 23:00:00 7,0 4,6 6,6 24 13 32 18 SW 1015,8 10 0,0
15.01.2019 22:00:00 6,9 4,4 6,5 22 12 32 18 SW 1016,3 10 0,0
15.01.2019 21:00:00 6,8 4,0 6,4 26 14 36 19 SW 1016,4 10 0,0
15.01.2019 20:00:00 6,9 3,9 6,5 24 13 36 19 SW 1016,7 10 0,0
15.01.2019 19:00:00 6,8 3,9 6,4 22 12 36 19 SW 1017,0 10 0,0
15.01.2019 18:00:00 7,1 4,0 6,6 24 13 36 19 SW 1017,0 10 0,0
15.01.2019 17:00:00 7,2 4,1 6,6 22 12 32 18 SW 1017,1 10 0,0

tt = Température de l'air
td = dewpoint
tt 5cm = Température de l'air 5cm
ff = Vitesse du vent
fx = gusts
dd = Direction du vent
ppp = reduced air pressure
vv = visibility
rr = Quantités de précipitations

stations d'obs. à proximité